Time,TemperatureF,DewpointF,PressureIn,WindDirection,WindDirectionDegrees,WindSpeedMPH,WindSpeedGustMPH,Humidity,HourlyPrecipIn,Conditions,Clouds,dailyrainin,SolarRadiationWatts/m^2,SoftwareType,DateUTC
2013-03-01 00:02:00,19.0,11.0,-100.00,NNE,30,4.0,8.0,70,0.00,,,0.00,0.000000,,2013-03-01 06:02:00,
2013-03-01 00:11:00,19.0,11.0,-100.00,NNE,30,4.0,8.0,70,0.00,,,0.00,0.000000,,2013-03-01 06:11:00,
2013-03-01 00:20:00,19.0,12.0,-100.00,NE,43,4.0,8.0,73,0.00,,,0.00,0.000000,,2013-03-01 06:20:00,
2013-03-01 00:42:00,19.0,12.0,-100.00,NE,43,4.0,8.0,73,0.00,,,0.00,0.000000,,2013-03-01 06:42:00,
2013-03-01 00:53:00,19.0,12.0,-100.00,NE,43,4.0,8.0,73,0.00,,,0.00,0.000000,,2013-03-01 06:53:00,
2013-03-01 01:02:00,19.0,12.0,-100.00,NE,43,4.0,8.0,73,0.00,,,0.00,0.000000,,2013-03-01 07:02:00,
2013-03-01 01:11:00,19.0,12.0,-100.00,NE,43,4.0,8.0,73,0.00,,,0.00,0.000000,,2013-03-01 07:11:00,
2013-03-01 01:20:00,18.0,12.0,-100.00,NNE,13,3.0,9.0,76,0.00,,,0.00,0.000000,,2013-03-01 07:20:00,
2013-03-01 01:42:00,18.0,12.0,-100.00,NNE,13,3.0,9.0,76,0.00,,,0.00,0.000000,,2013-03-01 07:42:00,
2013-03-01 01:52:00,18.0,12.0,-100.00,NNE,13,3.0,9.0,76,0.00,,,0.00,0.000000,,2013-03-01 07:52:00,
2013-03-01 02:02:00,18.0,12.0,-100.00,NNE,13,3.0,9.0,76,0.00,,,0.00,0.000000,,2013-03-01 08:02:00,
2013-03-01 02:12:00,18.0,12.0,-100.00,NNE,13,3.0,9.0,76,0.00,,,0.00,0.000000,,2013-03-01 08:12:00,
2013-03-01 02:20:00,18.0,12.0,-100.00,NNE,27,3.0,5.0,76,0.00,,,0.00,0.000000,,2013-03-01 08:20:00,
2013-03-01 02:43:00,18.0,12.0,-100.00,NNE,27,3.0,5.0,76,0.00,,,0.00,0.000000,,2013-03-01 08:43:00,
2013-03-01 02:53:00,18.0,12.0,-100.00,NNE,27,3.0,5.0,76,0.00,,,0.00,0.000000,,2013-03-01 08:53:00,
2013-03-01 03:02:00,18.0,12.0,-100.00,NNE,27,3.0,5.0,76,0.00,,,0.00,0.000000,,2013-03-01 09:02:00,
2013-03-01 03:12:00,18.0,12.0,-100.00,NNE,27,3.0,5.0,76,0.00,,,0.00,0.000000,,2013-03-01 09:12:00,
2013-03-01 03:20:00,19.0,13.0,-100.00,NE,44,3.0,6.0,77,0.00,,,0.00,0.000000,,2013-03-01 09:20:00,
2013-03-01 03:42:00,19.0,13.0,-100.00,NE,44,3.0,6.0,77,0.00,,,0.00,0.000000,,2013-03-01 09:42:00,
2013-03-01 03:52:00,19.0,13.0,-100.00,NE,44,3.0,6.0,77,0.00,,,0.00,0.000000,,2013-03-01 09:52:00,
2013-03-01 04:02:00,19.0,13.0,-100.00,NE,44,3.0,6.0,77,0.00,,,0.00,0.000000,,2013-03-01 10:02:00,
2013-03-01 04:11:00,19.0,13.0,-100.00,NE,44,3.0,6.0,77,0.00,,,0.00,0.000000,,2013-03-01 10:11:00,
2013-03-01 04:20:00,19.0,13.0,-100.00,NNE,32,3.0,6.0,76,0.00,,,0.00,0.000000,,2013-03-01 10:20:00,
2013-03-01 04:42:00,19.0,13.0,-100.00,NNE,32,3.0,6.0,76,0.00,,,0.00,0.000000,,2013-03-01 10:42:00,
2013-03-01 04:53:00,19.0,13.0,-100.00,NNE,32,3.0,6.0,76,0.00,,,0.00,0.000000,,2013-03-01 10:53:00,
2013-03-01 05:01:00,19.0,13.0,-100.00,NNE,32,3.0,6.0,76,0.00,,,0.00,0.000000,,2013-03-01 11:01:00,
2013-03-01 05:11:00,19.0,13.0,-100.00,NNE,32,3.0,6.0,76,0.00,,,0.00,0.000000,,2013-03-01 11:11:00,
2013-03-01 05:20:00,20.0,13.0,-100.00,North,356,3.0,5.0,75,0.00,,,0.00,0.000000,,2013-03-01 11:20:00,
2013-03-01 05:42:00,20.0,13.0,-100.00,North,356,3.0,5.0,75,0.00,,,0.00,0.000000,,2013-03-01 11:42:00,
2013-03-01 05:52:00,20.0,13.0,-100.00,North,356,3.0,5.0,75,0.00,,,0.00,0.000000,,2013-03-01 11:52:00,
2013-03-01 06:01:00,20.0,13.0,-100.00,North,356,3.0,5.0,75,0.00,,,0.00,0.000000,,2013-03-01 12:01:00,
2013-03-01 06:11:00,20.0,13.0,-100.00,North,356,3.0,5.0,75,0.00,,,0.00,0.000000,,2013-03-01 12:11:00,
2013-03-01 06:20:00,19.0,13.0,-100.00,North,5,4.0,7.0,76,0.00,,,0.00,0.000000,,2013-03-01 12:20:00,
2013-03-01 06:42:00,19.0,13.0,-100.00,North,5,4.0,7.0,76,0.00,,,0.00,0.000000,,2013-03-01 12:42:00,
2013-03-01 06:52:00,19.0,13.0,-100.00,North,5,4.0,7.0,76,0.00,,,0.00,0.000000,,2013-03-01 12:52:00,
2013-03-01 07:01:00,19.0,13.0,-100.00,North,5,4.0,7.0,76,0.00,,,0.00,0.000000,,2013-03-01 13:01:00,
2013-03-01 07:11:00,19.0,13.0,-100.00,North,5,4.0,7.0,76,0.00,,,0.00,0.000000,,2013-03-01 13:11:00,
2013-03-01 07:20:00,20.0,13.0,-100.00,NNE,23,4.0,7.0,75,0.00,,,0.00,6.000000,,2013-03-01 13:20:00,
2013-03-01 07:42:00,20.0,13.0,-100.00,NNE,23,4.0,7.0,75,0.00,,,0.00,6.000000,,2013-03-01 13:42:00,
2013-03-01 07:52:00,20.0,13.0,-100.00,NNE,23,4.0,7.0,75,0.00,,,0.00,6.000000,,2013-03-01 13:52:00,
2013-03-01 08:01:00,20.0,13.0,-100.00,NNE,23,4.0,7.0,75,0.00,,,0.00,6.000000,,2013-03-01 14:01:00,
2013-03-01 08:11:00,20.0,13.0,-100.00,NNE,23,4.0,7.0,75,0.00,,,0.00,6.000000,,2013-03-01 14:11:00,
2013-03-01 08:20:00,22.0,14.0,-100.00,NE,36,5.0,10.0,72,0.00,,,0.00,70.000000,,2013-03-01 14:20:00,
2013-03-01 08:42:00,22.0,14.0,-100.00,NE,36,5.0,10.0,72,0.00,,,0.00,70.000000,,2013-03-01 14:42:00,
2013-03-01 08:52:00,22.0,14.0,-100.00,NE,36,5.0,10.0,72,0.00,,,0.00,70.000000,,2013-03-01 14:52:00,
2013-03-01 09:01:00,22.0,14.0,-100.00,NE,36,5.0,10.0,72,0.00,,,0.00,70.000000,,2013-03-01 15:01:00,
2013-03-01 09:11:00,22.0,14.0,-100.00,NE,36,5.0,10.0,72,0.00,,,0.00,70.000000,,2013-03-01 15:11:00,
2013-03-01 09:20:00,23.0,14.0,-100.00,NNE,32,7.0,14.0,68,0.00,,,0.00,172.000000,,2013-03-01 15:20:00,
2013-03-01 09:42:00,23.0,14.0,-100.00,NNE,32,7.0,14.0,68,0.00,,,0.00,172.000000,,2013-03-01 15:42:00,
2013-03-01 09:52:00,23.0,14.0,-100.00,NNE,32,7.0,14.0,68,0.00,,,0.00,172.000000,,2013-03-01 15:52:00,
2013-03-01 10:01:00,23.0,14.0,-100.00,NNE,32,7.0,14.0,68,0.00,,,0.00,172.000000,,2013-03-01 16:01:00,
2013-03-01 10:11:00,23.0,14.0,-100.00,NNE,32,7.0,14.0,68,0.00,,,0.00,172.000000,,2013-03-01 16:11:00,
2013-03-01 10:20:00,24.0,14.0,-100.00,NNE,28,8.0,16.0,65,0.00,,,0.00,293.000000,,2013-03-01 16:20:00,
2013-03-01 10:42:00,24.0,14.0,-100.00,NNE,28,8.0,16.0,65,0.00,,,0.00,293.000000,,2013-03-01 16:42:00,
2013-03-01 10:52:00,24.0,14.0,-100.00,NNE,28,8.0,16.0,65,0.00,,,0.00,293.000000,,2013-03-01 16:52:00,
2013-03-01 11:01:00,24.0,14.0,-100.00,NNE,28,8.0,16.0,65,0.00,,,0.00,293.000000,,2013-03-01 17:01:00,
2013-03-01 11:11:00,24.0,14.0,-100.00,NNE,28,8.0,16.0,65,0.00,,,0.00,293.000000,,2013-03-01 17:11:00,
2013-03-01 11:20:00,25.0,14.0,-100.00,ENE,62,8.0,12.0,62,0.00,,,0.00,362.000000,,2013-03-01 17:20:00,
2013-03-01 11:42:00,25.0,14.0,-100.00,ENE,62,8.0,12.0,62,0.00,,,0.00,362.000000,,2013-03-01 17:42:00,
2013-03-01 11:52:00,25.0,14.0,-100.00,ENE,62,8.0,12.0,62,0.00,,,0.00,362.000000,,2013-03-01 17:52:00,
2013-03-01 12:01:00,25.0,14.0,-100.00,ENE,62,8.0,12.0,62,0.00,,,0.00,362.000000,,2013-03-01 18:01:00,
2013-03-01 12:12:00,25.0,14.0,-100.00,ENE,62,8.0,12.0,62,0.00,,,0.00,362.000000,,2013-03-01 18:12:00,
2013-03-01 12:20:00,26.0,14.0,-100.00,NNE,19,6.0,13.0,60,0.00,,,0.00,466.000000,,2013-03-01 18:20:00,
2013-03-01 12:42:00,26.0,14.0,-100.00,NNE,19,6.0,13.0,60,0.00,,,0.00,466.000000,,2013-03-01 18:42:00,
2013-03-01 12:52:00,26.0,14.0,-100.00,NNE,19,6.0,13.0,60,0.00,,,0.00,466.000000,,2013-03-01 18:52:00,
2013-03-01 13:01:00,26.0,14.0,-100.00,NNE,19,6.0,13.0,60,0.00,,,0.00,466.000000,,2013-03-01 19:01:00,
2013-03-01 13:11:00,26.0,14.0,-100.00,NNE,19,6.0,13.0,60,0.00,,,0.00,466.000000,,2013-03-01 19:11:00,
2013-03-01 13:20:00,29.0,15.0,-100.00,NNE,26,7.0,14.0,55,0.00,,,0.00,530.000000,,2013-03-01 19:20:00,
2013-03-01 13:42:00,29.0,15.0,-100.00,NNE,26,7.0,14.0,55,0.00,,,0.00,530.000000,,2013-03-01 19:42:00,
2013-03-01 13:52:00,29.0,15.0,-100.00,NNE,26,7.0,14.0,55,0.00,,,0.00,530.000000,,2013-03-01 19:52:00,
2013-03-01 14:01:00,29.0,15.0,-100.00,NNE,26,7.0,14.0,55,0.00,,,0.00,530.000000,,2013-03-01 20:01:00,
2013-03-01 14:11:00,29.0,15.0,-100.00,NNE,26,7.0,14.0,55,0.00,,,0.00,530.000000,,2013-03-01 20:11:00,
2013-03-01 14:20:00,30.0,15.0,-100.00,NE,48,8.0,12.0,54,0.00,,,0.00,658.000000,,2013-03-01 20:20:00,
2013-03-01 14:42:00,30.0,15.0,-100.00,NE,48,8.0,12.0,54,0.00,,,0.00,658.000000,,2013-03-01 20:42:00,
2013-03-01 14:52:00,30.0,15.0,-100.00,NE,48,8.0,12.0,54,0.00,,,0.00,658.000000,,2013-03-01 20:52:00,
2013-03-01 15:01:00,30.0,15.0,-100.00,NE,48,8.0,12.0,54,0.00,,,0.00,658.000000,,2013-03-01 21:01:00,
2013-03-01 15:11:00,30.0,15.0,-100.00,NE,48,8.0,12.0,54,0.00,,,0.00,658.000000,,2013-03-01 21:11:00,
2013-03-01 15:20:00,29.0,14.0,-100.00,NE,46,7.0,14.0,53,0.00,,,0.00,510.000000,,2013-03-01 21:20:00,
2013-03-01 15:42:00,29.0,14.0,-100.00,NE,46,7.0,14.0,53,0.00,,,0.00,510.000000,,2013-03-01 21:42:00,
2013-03-01 15:52:00,29.0,14.0,-100.00,NE,46,7.0,14.0,53,0.00,,,0.00,510.000000,,2013-03-01 21:52:00,
2013-03-01 16:01:00,29.0,14.0,-100.00,NE,46,7.0,14.0,53,0.00,,,0.00,510.000000,,2013-03-01 22:01:00,
2013-03-01 16:11:00,29.0,14.0,-100.00,NE,46,7.0,14.0,53,0.00,,,0.00,510.000000,,2013-03-01 22:11:00,
2013-03-01 16:20:00,29.0,14.0,-100.00,NE,36,7.0,13.0,52,0.00,,,0.00,354.000000,,2013-03-01 22:20:00,
2013-03-01 16:42:00,29.0,14.0,-100.00,NE,36,7.0,13.0,52,0.00,,,0.00,354.000000,,2013-03-01 22:42:00,
2013-03-01 16:52:00,29.0,14.0,-100.00,NE,36,7.0,13.0,52,0.00,,,0.00,354.000000,,2013-03-01 22:52:00,
2013-03-01 17:01:00,29.0,14.0,-100.00,NE,36,7.0,13.0,52,0.00,,,0.00,354.000000,,2013-03-01 23:01:00,
2013-03-01 17:11:00,29.0,14.0,-100.00,NE,36,7.0,13.0,52,0.00,,,0.00,354.000000,,2013-03-01 23:11:00,
2013-03-01 17:20:00,27.0,-99.9,-100.00,NE,50,6.0,-999.0,-999,0.00,,,0.00,,,2013-03-01 23:20:00,
2013-03-01 17:42:00,27.0,-99.9,-100.00,NE,50,6.0,-999.0,-999,0.00,,,0.00,,,2013-03-01 23:42:00,
2013-03-01 17:52:00,27.0,-99.9,-100.00,NE,50,6.0,-999.0,-999,0.00,,,0.00,,,2013-03-01 23:52:00,
2013-03-01 18:02:00,27.0,-99.9,-100.00,NE,50,6.0,-999.0,-999,0.00,,,0.00,,,2013-03-02 00:02:00,
2013-03-01 18:12:00,27.0,-99.9,-100.00,NE,50,6.0,-999.0,-999,0.00,,,0.00,,,2013-03-02 00:12:00,
2013-03-01 18:20:00,23.0,12.0,-100.00,NE,46,5.0,10.0,62,0.00,,,0.00,23.000000,,2013-03-02 00:20:00,
2013-03-01 18:42:00,23.0,12.0,-100.00,NE,46,5.0,10.0,62,0.00,,,0.00,23.000000,,2013-03-02 00:42:00,
2013-03-01 18:52:00,23.0,12.0,-100.00,NE,46,5.0,10.0,62,0.00,,,0.00,23.000000,,2013-03-02 00:52:00,
2013-03-01 19:01:00,23.0,12.0,-100.00,NE,46,5.0,10.0,62,0.00,,,0.00,23.000000,,2013-03-02 01:01:00,
2013-03-01 19:11:00,23.0,12.0,-100.00,NE,46,5.0,10.0,62,0.00,,,0.00,23.000000,,2013-03-02 01:11:00,
2013-03-01 19:20:00,20.0,11.0,-100.00,NNE,31,4.0,8.0,68,0.00,,,0.00,0.000000,,2013-03-02 01:20:00,
2013-03-01 19:42:00,20.0,11.0,-100.00,NNE,31,4.0,8.0,68,0.00,,,0.00,0.000000,,2013-03-02 01:42:00,
2013-03-01 19:52:00,20.0,11.0,-100.00,NNE,31,4.0,8.0,68,0.00,,,0.00,0.000000,,2013-03-02 01:52:00,
2013-03-01 20:01:00,20.0,11.0,-100.00,NNE,31,4.0,8.0,68,0.00,,,0.00,0.000000,,2013-03-02 02:01:00,
2013-03-01 20:11:00,20.0,11.0,-100.00,NNE,31,4.0,8.0,68,0.00,,,0.00,0.000000,,2013-03-02 02:11:00,
2013-03-01 20:20:00,18.0,10.0,-100.00,NE,40,2.0,7.0,69,0.00,,,-99.99,0.000000,,2013-03-02 02:20:00,
2013-03-01 20:42:00,18.0,10.0,-100.00,NE,40,2.0,7.0,69,0.00,,,-99.99,0.000000,,2013-03-02 02:42:00,
2013-03-01 20:52:00,18.0,10.0,-100.00,NE,40,2.0,7.0,69,0.00,,,-99.99,0.000000,,2013-03-02 02:52:00,
2013-03-01 21:02:00,18.0,10.0,-100.00,NE,40,2.0,7.0,69,0.00,,,-99.99,0.000000,,2013-03-02 03:02:00,
2013-03-01 21:11:00,18.0,10.0,-100.00,NE,40,2.0,7.0,69,0.00,,,-99.99,0.000000,,2013-03-02 03:11:00,
2013-03-01 21:20:00,15.0,7.0,-100.00,NNE,26,2.0,7.0,69,0.00,,,0.00,0.000000,,2013-03-02 03:20:00,
2013-03-01 21:42:00,15.0,7.0,-100.00,NNE,26,2.0,7.0,69,0.00,,,0.00,0.000000,,2013-03-02 03:42:00,
2013-03-01 21:52:00,15.0,7.0,-100.00,NNE,26,2.0,7.0,69,0.00,,,0.00,0.000000,,2013-03-02 03:52:00,
2013-03-01 22:01:00,15.0,7.0,-100.00,NNE,26,2.0,7.0,69,0.00,,,0.00,0.000000,,2013-03-02 04:01:00,
2013-03-01 22:11:00,15.0,7.0,-100.00,NNE,26,2.0,7.0,69,0.00,,,0.00,0.000000,,2013-03-02 04:11:00,
2013-03-01 22:20:00,14.0,5.0,-100.00,NE,38,3.0,5.0,67,0.00,,,0.00,0.000000,,2013-03-02 04:20:00,
2013-03-01 22:42:00,14.0,5.0,-100.00,NE,38,3.0,5.0,67,0.00,,,0.00,0.000000,,2013-03-02 04:42:00,
2013-03-01 22:52:00,14.0,5.0,-100.00,NE,38,3.0,5.0,67,0.00,,,0.00,0.000000,,2013-03-02 04:52:00,
2013-03-01 23:02:00,14.0,5.0,-100.00,NE,38,3.0,5.0,67,0.00,,,0.00,0.000000,,2013-03-02 05:02:00,
2013-03-01 23:12:00,14.0,5.0,-100.00,NE,38,3.0,5.0,67,0.00,,,0.00,0.000000,,2013-03-02 05:12:00,
2013-03-01 23:20:00,10.0,3.0,-100.00,NNE,18,2.0,5.0,74,0.00,,,0.00,0.000000,,2013-03-02 05:20:00,
2013-03-01 23:42:00,10.0,3.0,-100.00,NNE,18,2.0,5.0,74,0.00,,,0.00,0.000000,,2013-03-02 05:42:00,
2013-03-01 23:52:00,10.0,3.0,-100.00,NNE,18,2.0,5.0,74,0.00,,,0.00,0.000000,,2013-03-02 05:52:00,